Location: Hains Lake
(37.8540°N, 99.8578°W)
Time: 21:47:58
(UTC+00:00)

Vanguard 2 Rocket - Pass Details

Date: 25 April 2021
Orbit: 553 x 3326 km, 32.9° (Epoch: 05 May)

Event Time Altitude Azimuth Distance (km) Brightness Sun altitude
Rises 22:29:16 0° 276° (W) 6,823 12.4 33.4°
Reaches altitude 10° 22:33:32 10° 274° (W) 6,011 12.5 32.6°
Maximum altitude 22:53:18 67° 198° (SSW) 3,453 10.4 28.7°
Drops below altitude 10° 23:10:31 10° 121° (ESE) 5,328 10.4 25.3°
Sets 23:14:02 0° 119° (ESE) 6,047 10.6 24.6°
